Regional Weather Roundup
Issued by NWS Jackson, KY

Home | Current Version | Previous Version | Text Only | Print | Product List | Glossary On
Versions: 1 2 3 4 5 6 7 8 9 10 11 12 13 14 15 16 17 18 19 20 21 22 23 24 25 26 27 28 29 30 31 32 33 34 35 36 37 38 39 40 41 42 43 44 45 46 47 48 49 50
000
ASUS43 KJKL 170805
RWRJKL

EAST KENTUCKY HOURLY WEATHER ROUNDUP
NATIONAL WEATHER SERVICE JACKSON KY
400 AM EDT WED SEP 17 2014

NOTE: "FAIR" INDICATES FEW OR NO CLOUDS BELOW 12,000 FEET WITH
NO SIGNIFICANT WEATHER AND/OR OBSTRUCTIONS TO VISIBILITY.

* THESE REPORTS ARE NOT UNDER NWS QUALITY CONTROL AND MAY NOT
  REPORT WEATHER SUCH AS PRECIPITATION AND FOG.

KYZ079-080-083-085-087-088-110-112-115-119-120-170900
...EASTERN KENTUCKY...

CITY           SKY/WX    TMP DP  RH WIND       PRES   REMARKS
JACKSON        CLOUDY    56  54  93 CALM      30.07S
LONDON         CLOUDY    59  54  83 N5        30.07S
MONTICELLO*    CLOUDY    58  56  93 CALM      30.08S
MIDDLESBORO*   CLOUDY    56  56 100 CALM      30.06S FOG
HARLAN APT*    CLOUDY    55  55 100 MISG      30.06S
BLACK MTN*       N/A     50  50 100 W1          N/A
PIKEVILLE APT* CLOUDY    55  55 100 N7        30.06F FOG
BIG SANDY*     PTSUNNY   55  55  99 CALM      30.07S FOG
MOREHEAD APT*  FOG       48  46  93 CALM      30.10F VSB 1/4
$$

KYZ035-036-041-042-044-050-067-078-099-170900
...CENTRAL KENTUCKY...

CITY           SKY/WX    TMP DP  RH WIND       PRES   REMARKS
MT STERLING*   MOCLDY    50  50 100 CALM      30.09F
FLEMING/MASON* CLEAR     47  47  98 CALM      30.09F FOG
DANVILLE*      CLEAR     50  48  93 CALM      30.08F FOG
RICHMOND*      CLOUDY    54  50  87 E3        30.07F
LEXINGTON      CLOUDY    55  51  86 NE6       30.08F
FRANKFORT      CLOUDY    47  47 100 CALM      30.07F FOG
$$

KYZ091>093-OHZ055-061-077-WVZ005-015-034-035-042-170900
...SOUTHERN OHIO/WEST VIRGINIA...

CITY           SKY/WX    TMP DP  RH WIND       PRES   REMARKS
COVINGTON      CLEAR     50  47  89 CALM      30.08F FOG
COLUMBUS       PTCLDY    50  45  83 CALM      30.08F
DAYTON         CLEAR     46  44  93 CALM      30.09F
WILMINGTON     FOG       44  42  93 CALM      30.08F VSB 1/4
HUNTINGTON     CLEAR     49  49 100 CALM      30.07S FOG
CHARLESTON     FOG       55  55 100 CALM      30.06F VSB 1/4
PINEVILLE*     CLOUDY    55  55 100 MISG      30.10F FOG
BECKLEY        CLOUDY    54  52  93 CALM      30.08S
BLUEFIELD      PTCLDY    55  51  86 E3        30.07F FOG
$$

VAZ002-007-008-TNZ017-027-036-066-071-170900
...SOUTHWEST VIRGINIA/EAST TENNESSEE...

CITY           SKY/WX    TMP DP  RH WIND       PRES   REMARKS
WISE*          CLOUDY    55  55 100 N5        30.08F FOG
JONESVILLE*    CLOUDY    55  55 100 CALM      30.07S
ABINGDON*      PTCLDY    60  57  89 E5        30.04F
BRISTOL        PTCLDY    61  56  83 CALM      30.03S
KNOXVILLE      CLOUDY    63  59  87 N5        30.01S
OAK RIDGE      CLEAR     58  56  93 CALM      30.04S
CROSSVILLE     FOG       58  55  90 NE6       30.06S VSB 1/4
NASHVILLE      PTCLDY    57  54  89 N5        30.05F
$$

...KEY TO REMARKS...
VSB - VISIBILITY IN MILES
WCI - WIND CHILL INDEX
HX  - HEAT INDEX

$$


USA.gov is the U.S. government's official web portal to all federal, state and local government web resources and services.